Regional Weather Roundup
Issued by NWS

Home | Current Version | Previous Version | Text Only | Print | Product List | Glossary Off
Versions: 1 2 3 4 5 6 7 8 9 10 11 12 13 14 15 16 17 18 19 20 21 22 23 24 25 26 27 28 29 30 31 32 33 34 35 36 37 38 39 40 41 42 43 44 45 46 47 48 49 50

000
ASUS45 KSLC 301310
RWRUT

UTAH REGIONAL WEATHER ROUNDUP
NATIONAL WEATHER SERVICE SALT LAKE CITY UT
700 AM MDT THU JUL 30 2015

UTZ001>011-023>025-301400-

NORTHERN UTAH

CITY           SKY/WX    TMP DP  RH WIND       PRES   REMARKS
BRIGHAM CITY   CLEAR     52  37  55 NW3       30.30R
HILL AFB       NOT AVBL
LOGAN          CLEAR     46  35  65 VRB5      30.34R
OGDEN          CLEAR     58  32  37 S6        30.29R
PROVO AIRPORT  CLEAR     54  34  47 S3        30.31S
SALT LAKE CITY PTCLDY    61  38  42 NE5       30.28R
VERNAL         CLEAR     55  32  41 NW5       30.34R
WENDOVER       PTCLDY    63  30  29 CALM      30.28R
HEBER CITY     CLEAR     41  32  70 CALM      30.42R
WEST JORDAN    CLEAR     55  34  44 CALM      30.31R

$$

UTZ012>022-026-027-301400-

SOUTHERN/CENTRAL UTAH

CITY           SKY/WX    TMP DP  RH WIND       PRES   REMARKS
BLANDING       CLEAR     60  48  66 NW3       30.45R
BRYCE CANYON   MOCLDY    49  33  54 W9        30.48R
CEDAR CITY     MOCLDY    65  24  21 S3        30.31R
DELTA          PTCLDY    56  27  33 S3        30.28R
HANKSVILLE     PTCLDY    61  30  31 S5        30.26R
MILFORD        PTCLDY    58  22  24 N7        30.28R
MOAB/CYNLANDS  CLEAR     64  28  25 CALM      30.24R
PRICE          CLEAR     61  17  18 SE5       30.34R
ST GEORGE      SUNNY     75  37  25 NE3       30.12R
KANAB          CLEAR     64  46  52 N5        30.33R

$$

REGIONAL REPORTS     COLORADO/ARIZONA

CITY           SKY/WX    TMP DP  RH WIND       PRES   REMARKS
CRAIG, CO      CLEAR     39  30  70 W3        30.43R
GRAND JUNCTION CLEAR     59  31  34 SE6       30.29R
RIFLE          CLEAR     52  29  41 CALM      30.38R
MONTROSE       CLEAR     56  35  45 SE6       30.38R
CORTEZ         CLEAR     53  47  79 E3        30.39R
PAGE, AZ       CLEAR     74  56  53 SW5       30.23R
GRAND CANYON   CLEAR     54  45  71 CALM      30.40R
KINGMAN        CLOUDY    77  57  50 SE7       30.15R
FLAGSTAFF      PTCLDY    51  49  92 CALM      30.42R

$$

REGIONAL REPORTS    NEVADA/IDAHO/WYOMING

CITY           SKY/WX    TMP DP  RH WIND       PRES   REMARKS
LAS VEGAS, NV  CLOUDY    88  50  27 W5        29.99R
ELY            PTCLDY    43  22  43 S12       30.40R
ELKO           PTCLDY    48  29  47 E5        30.33R
POCATELLO, ID  CLEAR     45  41  86 CALM      30.33R
BURLEY         CLEAR     48  41  76 CALM      30.29R
EVANSTON, WY   CLEAR     52  25  35 CALM      30.47R
ROCK SPRINGS   CLEAR     49  23  36 E5        30.45R
KEMMERER       CLEAR     43  30  61 N10       30.49R

$$


USA.gov is the U.S. government's official web portal to all federal, state and local government web resources and services.